Year,Month,Day,Hour,Minute,Value (Times are PST for temperature in C)
2014,08,05,00,00,21.40
2014,08,05,00,01,21.40
2014,08,05,00,02,21.40
2014,08,05,00,03,21.40
2014,08,05,00,04,21.40
2014,08,05,00,05,21.40
2014,08,05,00,06,21.40
2014,08,05,00,07,21.30
2014,08,05,00,08,21.30
2014,08,05,00,09,21.20
2014,08,05,00,10,21.10
2014,08,05,00,11,21.10
2014,08,05,00,12,21.00
2014,08,05,00,13,20.90
2014,08,05,00,14,20.90
2014,08,05,00,15,20.80
2014,08,05,00,16,20.80
2014,08,05,00,17,20.80
2014,08,05,00,18,20.70
2014,08,05,00,19,20.70
2014,08,05,00,20,20.60
2014,08,05,00,21,20.60
2014,08,05,00,22,20.60
2014,08,05,00,23,20.50
2014,08,05,00,24,20.50
2014,08,05,00,25,20.40
2014,08,05,00,26,20.40
2014,08,05,00,27,20.30
2014,08,05,00,28,20.30
2014,08,05,00,29,20.30
2014,08,05,00,30,20.20
2014,08,05,00,31,20.20
2014,08,05,00,32,20.20
2014,08,05,00,33,20.20
2014,08,05,00,34,20.10
2014,08,05,00,35,20.10
2014,08,05,00,36,20.10
2014,08,05,00,37,20.10
2014,08,05,00,38,20.10
2014,08,05,00,39,20.00
2014,08,05,00,40,20.00
2014,08,05,00,41,20.00
2014,08,05,00,42,19.90
2014,08,05,00,43,19.90
2014,08,05,00,44,19.90
2014,08,05,00,45,19.80
2014,08,05,00,46,19.80
2014,08,05,00,47,19.80
2014,08,05,00,48,19.70
2014,08,05,00,49,19.70
2014,08,05,00,50,19.60
2014,08,05,00,51,19.50
2014,08,05,00,52,19.40
2014,08,05,00,53,19.40
2014,08,05,00,54,19.30
2014,08,05,00,55,19.30
2014,08,05,00,56,19.20
2014,08,05,00,57,19.20
2014,08,05,00,58,19.10
2014,08,05,00,59,19.10
2014,08,05,01,00,19.00
2014,08,05,01,01,19.00
2014,08,05,01,02,18.90
2014,08,05,01,03,18.90
2014,08,05,01,04,18.80
2014,08,05,01,05,18.80
2014,08,05,01,06,18.80
2014,08,05,01,07,18.70
2014,08,05,01,08,18.70
2014,08,05,01,09,18.70
2014,08,05,01,10,18.60
2014,08,05,01,11,18.60
2014,08,05,01,12,18.60
2014,08,05,01,13,18.60
2014,08,05,01,14,18.50
2014,08,05,01,15,18.50
2014,08,05,01,16,18.50
2014,08,05,01,17,18.40
2014,08,05,01,18,18.40
2014,08,05,01,19,18.40
2014,08,05,01,20,18.40
2014,08,05,01,21,18.30
2014,08,05,01,22,18.30
2014,08,05,01,23,18.30
2014,08,05,01,24,18.30
2014,08,05,01,25,18.30
2014,08,05,01,26,18.30
2014,08,05,01,27,18.30
2014,08,05,01,28,18.30
2014,08,05,01,29,18.30
2014,08,05,01,30,18.30
2014,08,05,01,31,18.30
2014,08,05,01,32,18.30
2014,08,05,01,33,18.30
2014,08,05,01,34,18.30
2014,08,05,01,35,18.30
2014,08,05,01,36,18.30
2014,08,05,01,37,18.30
2014,08,05,01,38,18.30
2014,08,05,01,39,18.30
2014,08,05,01,40,18.30
2014,08,05,01,41,18.30
2014,08,05,01,42,18.20
2014,08,05,01,43,18.20
2014,08,05,01,44,18.20
2014,08,05,01,45,18.10
2014,08,05,01,46,18.10
2014,08,05,01,47,18.10
2014,08,05,01,48,18.00
2014,08,05,01,49,18.00
2014,08,05,01,50,18.00
2014,08,05,01,51,17.90
2014,08,05,01,52,17.90
2014,08,05,01,53,17.90
2014,08,05,01,54,17.80
2014,08,05,01,55,17.80
2014,08,05,01,56,17.80
2014,08,05,01,57,17.70
2014,08,05,01,58,17.70
2014,08,05,01,59,17.70
2014,08,05,02,00,17.60
2014,08,05,02,01,17.60
2014,08,05,02,02,17.60
2014,08,05,02,03,17.60
2014,08,05,02,04,17.50
2014,08,05,02,05,17.50
2014,08,05,02,06,17.50
2014,08,05,02,07,17.40
2014,08,05,02,08,17.40
2014,08,05,02,09,17.40
2014,08,05,02,10,17.40
2014,08,05,02,11,17.40
2014,08,05,02,12,17.30
2014,08,05,02,13,17.30
2014,08,05,02,14,17.30
2014,08,05,02,15,17.30
2014,08,05,02,16,17.20
2014,08,05,02,17,17.20
2014,08,05,02,18,17.20
2014,08,05,02,19,17.20
2014,08,05,02,20,17.20
2014,08,05,02,21,17.10
2014,08,05,02,22,17.10
2014,08,05,02,23,17.10
2014,08,05,02,24,17.10
2014,08,05,02,25,17.00
2014,08,05,02,26,17.00
2014,08,05,02,27,17.00
2014,08,05,02,28,16.90
2014,08,05,02,29,16.90
2014,08,05,02,30,16.90
2014,08,05,02,31,16.90
2014,08,05,02,32,16.90
2014,08,05,02,33,16.90
2014,08,05,02,34,16.90
2014,08,05,02,35,16.90
2014,08,05,02,36,16.80
2014,08,05,02,37,16.80
2014,08,05,02,38,16.80
2014,08,05,02,39,16.80
2014,08,05,02,40,16.80
2014,08,05,02,41,16.70
2014,08,05,02,42,16.70
2014,08,05,02,43,16.70
2014,08,05,02,44,16.70
2014,08,05,02,45,16.60
2014,08,05,02,46,16.60
2014,08,05,02,47,16.60
2014,08,05,02,48,16.60
2014,08,05,02,49,16.60
2014,08,05,02,50,16.50
2014,08,05,02,51,16.50
2014,08,05,02,52,16.50
2014,08,05,02,53,16.40
2014,08,05,02,54,16.40
2014,08,05,02,55,16.40
2014,08,05,02,56,16.40
2014,08,05,02,57,16.40
2014,08,05,02,58,16.40
2014,08,05,02,59,16.40
2014,08,05,03,00,16.30
2014,08,05,03,01,16.30
2014,08,05,03,02,16.30
2014,08,05,03,03,16.30
2014,08,05,03,04,16.30
2014,08,05,03,05,16.30
2014,08,05,03,06,16.30
2014,08,05,03,07,16.30
2014,08,05,03,08,16.30
2014,08,05,03,09,16.20
2014,08,05,03,10,16.20
2014,08,05,03,11,16.20
2014,08,05,03,12,16.20
2014,08,05,03,13,16.20
2014,08,05,03,14,16.20
2014,08,05,03,15,16.20
2014,08,05,03,16,16.20
2014,08,05,03,17,16.10
2014,08,05,03,18,16.10
2014,08,05,03,19,16.10
2014,08,05,03,20,16.10
2014,08,05,03,21,16.10
2014,08,05,03,22,16.00
2014,08,05,03,23,16.00
2014,08,05,03,24,16.00
2014,08,05,03,25,16.00
2014,08,05,03,26,15.90
2014,08,05,03,27,15.90
2014,08,05,03,28,15.90
2014,08,05,03,29,15.90
2014,08,05,03,30,15.90
2014,08,05,03,31,15.90
2014,08,05,03,32,15.80
2014,08,05,03,33,15.80
2014,08,05,03,34,15.80
2014,08,05,03,35,15.80
2014,08,05,03,36,15.80
2014,08,05,03,37,15.80
2014,08,05,03,38,15.70
2014,08,05,03,39,15.70
2014,08,05,03,40,15.70
2014,08,05,03,41,15.70
2014,08,05,03,42,15.70
2014,08,05,03,43,15.70
2014,08,05,03,44,15.70
2014,08,05,03,45,15.70
2014,08,05,03,46,15.80
2014,08,05,03,47,15.80
2014,08,05,03,48,15.80
2014,08,05,03,49,15.80
2014,08,05,03,50,15.90
2014,08,05,03,51,15.90
2014,08,05,03,52,15.90
2014,08,05,03,53,15.90
2014,08,05,03,54,16.00
2014,08,05,03,55,16.00
2014,08,05,03,56,16.00
2014,08,05,03,57,16.00
2014,08,05,03,58,16.00
2014,08,05,03,59,15.90
2014,08,05,04,00,15.90
2014,08,05,04,01,15.90
2014,08,05,04,02,15.90
2014,08,05,04,03,15.90
2014,08,05,04,04,15.90
2014,08,05,04,05,15.90
2014,08,05,04,06,15.90
2014,08,05,04,07,15.90
2014,08,05,04,08,15.80
2014,08,05,04,09,15.80
2014,08,05,04,10,15.80
2014,08,05,04,11,15.80
2014,08,05,04,12,15.80
2014,08,05,04,13,15.80
2014,08,05,04,14,15.80
2014,08,05,04,15,15.80
2014,08,05,04,16,15.70
2014,08,05,04,17,15.70
2014,08,05,04,18,15.60
2014,08,05,04,19,15.60
2014,08,05,04,20,15.60
2014,08,05,04,21,15.50
2014,08,05,04,22,15.50
2014,08,05,04,23,15.50
2014,08,05,04,24,15.40
2014,08,05,04,25,15.40
2014,08,05,04,26,15.40
2014,08,05,04,27,15.40
2014,08,05,04,28,15.40
2014,08,05,04,29,15.30
2014,08,05,04,30,15.30
2014,08,05,04,31,15.30
2014,08,05,04,32,15.30
2014,08,05,04,33,15.20
2014,08,05,04,34,15.20
2014,08,05,04,35,15.20
2014,08,05,04,36,15.20
2014,08,05,04,37,15.20
2014,08,05,04,38,15.20
2014,08,05,04,39,15.20
2014,08,05,04,40,15.20
2014,08,05,04,41,15.20
2014,08,05,04,42,15.20
2014,08,05,04,43,15.10
2014,08,05,04,44,15.10
2014,08,05,04,45,15.10
2014,08,05,04,46,15.10
2014,08,05,04,47,15.10
2014,08,05,04,48,15.00
2014,08,05,04,49,15.00
2014,08,05,04,50,15.00
2014,08,05,04,51,15.00
2014,08,05,04,52,15.00
2014,08,05,04,53,15.00
2014,08,05,04,54,15.00
2014,08,05,04,55,15.00
2014,08,05,04,56,15.00
2014,08,05,04,57,15.00
2014,08,05,04,58,15.00
2014,08,05,04,59,15.00
2014,08,05,05,00,15.00
2014,08,05,05,01,15.00
2014,08,05,05,02,15.00
2014,08,05,05,03,15.00
2014,08,05,05,04,15.00
2014,08,05,05,05,15.00
2014,08,05,05,06,15.00
2014,08,05,05,07,14.90
2014,08,05,05,08,14.90
2014,08,05,05,09,14.90
2014,08,05,05,10,14.90
2014,08,05,05,11,14.90
2014,08,05,05,12,14.80
2014,08,05,05,13,14.80
2014,08,05,05,14,14.80
2014,08,05,05,15,14.80
2014,08,05,05,16,14.80
2014,08,05,05,17,14.70
2014,08,05,05,18,14.70
2014,08,05,05,19,14.70
2014,08,05,05,20,14.70
2014,08,05,05,21,14.70
2014,08,05,05,22,14.70
2014,08,05,05,23,14.70
2014,08,05,05,24,14.70
2014,08,05,05,25,14.70
2014,08,05,05,26,14.60
2014,08,05,05,27,14.60
2014,08,05,05,28,14.60
2014,08,05,05,29,14.60
2014,08,05,05,30,14.60
2014,08,05,05,31,14.60
2014,08,05,05,32,14.50
2014,08,05,05,33,14.50
2014,08,05,05,34,14.50
2014,08,05,05,35,14.50
2014,08,05,05,36,14.40
2014,08,05,05,37,14.40
2014,08,05,05,38,14.40
2014,08,05,05,39,14.40
2014,08,05,05,40,14.40
2014,08,05,05,41,14.40
2014,08,05,05,42,14.40
2014,08,05,05,43,14.40
2014,08,05,05,44,14.40
2014,08,05,05,45,14.40
2014,08,05,05,46,14.30
2014,08,05,05,47,14.30
2014,08,05,05,48,14.30
2014,08,05,05,49,14.30
2014,08,05,05,50,14.30
2014,08,05,05,51,14.30
2014,08,05,05,52,14.30
2014,08,05,05,53,14.30
2014,08,05,05,54,14.20
2014,08,05,05,55,14.20
2014,08,05,05,56,14.20
2014,08,05,05,57,14.20
2014,08,05,05,58,14.20
2014,08,05,05,59,14.20
2014,08,05,06,00,14.20
2014,08,05,06,01,14.20
2014,08,05,06,02,14.20
2014,08,05,06,03,14.20
2014,08,05,06,04,14.20
2014,08,05,06,05,14.20
2014,08,05,06,06,14.20
2014,08,05,06,07,14.20
2014,08,05,06,08,14.20
2014,08,05,06,09,14.20
2014,08,05,06,10,14.10
2014,08,05,06,11,14.10
2014,08,05,06,12,14.10
2014,08,05,06,13,14.20
2014,08,05,06,14,14.20
2014,08,05,06,15,14.20
2014,08,05,06,16,14.20
2014,08,05,06,17,14.20
2014,08,05,06,18,14.20
2014,08,05,06,19,14.20
2014,08,05,06,20,14.20
2014,08,05,06,21,14.20
2014,08,05,06,22,14.20
2014,08,05,06,23,14.20
2014,08,05,06,24,14.20
2014,08,05,06,25,14.20
2014,08,05,06,26,14.20
2014,08,05,06,27,14.20
2014,08,05,06,28,14.20
2014,08,05,06,29,14.20
2014,08,05,06,30,14.20
2014,08,05,06,31,14.20
2014,08,05,06,32,14.20
2014,08,05,06,33,14.30
2014,08,05,06,34,14.30
2014,08,05,06,35,14.30
2014,08,05,06,36,14.30
2014,08,05,06,37,14.30
2014,08,05,06,38,14.30
2014,08,05,06,39,14.40
2014,08,05,06,40,14.40
2014,08,05,06,41,14.40
2014,08,05,06,42,14.50
2014,08,05,06,43,14.50
2014,08,05,06,44,14.60
2014,08,05,06,45,14.60
2014,08,05,06,46,14.60
2014,08,05,06,47,14.70
2014,08,05,06,48,14.70
2014,08,05,06,49,14.80
2014,08,05,06,50,14.80
2014,08,05,06,51,14.90
2014,08,05,06,52,15.00
2014,08,05,06,53,15.00
2014,08,05,06,54,15.00
2014,08,05,06,55,15.00
2014,08,05,06,56,15.00
2014,08,05,06,57,15.10
2014,08,05,06,58,15.20
2014,08,05,06,59,15.20
2014,08,05,07,00,15.30
2014,08,05,07,01,15.30
2014,08,05,07,02,15.40
2014,08,05,07,03,15.40
2014,08,05,07,04,15.50
2014,08,05,07,05,15.50
2014,08,05,07,06,15.60
2014,08,05,07,07,15.80
2014,08,05,07,08,15.90
2014,08,05,07,09,16.00
2014,08,05,07,10,16.10
2014,08,05,07,11,16.20
2014,08,05,07,12,16.30
2014,08,05,07,13,16.50
2014,08,05,07,14,16.60
2014,08,05,07,15,16.70
2014,08,05,07,16,16.90
2014,08,05,07,17,17.00
2014,08,05,07,18,17.10
2014,08,05,07,19,17.20
2014,08,05,07,20,17.30
2014,08,05,07,21,17.40
2014,08,05,07,22,17.40
2014,08,05,07,23,17.50
2014,08,05,07,24,17.60
2014,08,05,07,25,17.70
2014,08,05,07,26,17.70
2014,08,05,07,27,17.80
2014,08,05,07,28,17.90
2014,08,05,07,29,17.90
2014,08,05,07,30,18.00
2014,08,05,07,31,18.00
2014,08,05,07,32,18.10
2014,08,05,07,33,18.20
2014,08,05,07,34,18.20
2014,08,05,07,35,18.20
2014,08,05,07,36,18.30
2014,08,05,07,37,18.30
2014,08,05,07,38,18.40
2014,08,05,07,39,18.40
2014,08,05,07,40,18.40
2014,08,05,07,41,18.50
2014,08,05,07,42,18.50
2014,08,05,07,43,18.60
2014,08,05,07,44,18.60
2014,08,05,07,45,18.70
2014,08,05,07,46,18.70
2014,08,05,07,47,18.80
2014,08,05,07,48,18.80
2014,08,05,07,49,18.80
2014,08,05,07,50,18.80
2014,08,05,07,51,18.90
2014,08,05,07,52,18.90
2014,08,05,07,53,18.90
2014,08,05,07,54,18.90
2014,08,05,07,55,19.00
2014,08,05,07,56,19.00
2014,08,05,07,57,19.10
2014,08,05,07,58,19.20
2014,08,05,07,59,19.30
2014,08,05,08,00,19.40
2014,08,05,08,01,19.50
2014,08,05,08,02,19.50
2014,08,05,08,03,19.60
2014,08,05,08,04,19.60
2014,08,05,08,05,19.70
2014,08,05,08,06,19.70
2014,08,05,08,07,19.80
2014,08,05,08,08,19.80
2014,08,05,08,09,19.80
2014,08,05,08,10,19.80
2014,08,05,08,11,19.90
2014,08,05,08,12,19.90
2014,08,05,08,13,19.90
2014,08,05,08,14,20.00
2014,08,05,08,15,20.00
2014,08,05,08,16,20.10
2014,08,05,08,17,20.10
2014,08,05,08,18,20.10
2014,08,05,08,19,20.20
2014,08,05,08,20,20.20
2014,08,05,08,21,20.10
2014,08,05,08,22,20.10
2014,08,05,08,23,20.10
2014,08,05,08,24,20.00
2014,08,05,08,25,20.00
2014,08,05,08,26,20.00
2014,08,05,08,27,20.00
2014,08,05,08,28,20.00
2014,08,05,08,29,20.00
2014,08,05,08,30,20.10
2014,08,05,08,31,20.10
2014,08,05,08,32,20.10
2014,08,05,08,33,20.20
2014,08,05,08,34,20.20
2014,08,05,08,35,20.30
2014,08,05,08,36,20.30
2014,08,05,08,37,20.40
2014,08,05,08,38,20.40
2014,08,05,08,39,20.50
2014,08,05,08,40,20.50
2014,08,05,08,41,20.50
2014,08,05,08,42,20.40
2014,08,05,08,43,20.40
2014,08,05,08,44,20.30
2014,08,05,08,45,20.30
2014,08,05,08,46,20.30
2014,08,05,08,47,20.20
2014,08,05,08,48,20.20
2014,08,05,08,49,20.20
2014,08,05,08,50,20.10
2014,08,05,08,51,20.10
2014,08,05,08,52,20.10
2014,08,05,08,53,20.00
2014,08,05,08,54,20.00
2014,08,05,08,55,20.10
2014,08,05,08,56,20.10
2014,08,05,08,57,20.10
2014,08,05,08,58,20.10
2014,08,05,08,59,20.10
2014,08,05,09,00,20.00
2014,08,05,09,01,20.00
2014,08,05,09,02,20.00
2014,08,05,09,03,20.00
2014,08,05,09,04,19.90
2014,08,05,09,05,19.90
2014,08,05,09,06,19.80
2014,08,05,09,07,19.70
2014,08,05,09,08,19.60
2014,08,05,09,09,19.50
2014,08,05,09,10,19.50
2014,08,05,09,11,19.40
2014,08,05,09,12,19.30
2014,08,05,09,13,19.30
2014,08,05,09,14,19.30
2014,08,05,09,15,19.20
2014,08,05,09,16,19.20
2014,08,05,09,17,19.20
2014,08,05,09,18,19.20
2014,08,05,09,19,19.20
2014,08,05,09,20,19.10
2014,08,05,09,21,19.20
2014,08,05,09,22,19.10
2014,08,05,09,23,19.10
2014,08,05,09,24,19.20
2014,08,05,09,25,19.20
2014,08,05,09,26,19.20
2014,08,05,09,27,19.30
2014,08,05,09,28,19.30
2014,08,05,09,29,19.40
2014,08,05,09,30,19.40
2014,08,05,09,31,19.40
2014,08,05,09,32,19.40
2014,08,05,09,33,19.40
2014,08,05,09,34,19.40
2014,08,05,09,35,19.40
2014,08,05,09,36,19.40
2014,08,05,09,37,19.40
2014,08,05,09,38,19.30
2014,08,05,09,39,19.30
2014,08,05,09,40,19.30
2014,08,05,09,41,19.30
2014,08,05,09,42,19.30
2014,08,05,09,43,19.30
2014,08,05,09,44,19.30
2014,08,05,09,45,19.30
2014,08,05,09,46,19.30
2014,08,05,09,47,19.30
2014,08,05,09,48,19.30
2014,08,05,09,49,19.30
2014,08,05,09,50,19.30
2014,08,05,09,51,19.30
2014,08,05,09,52,19.40
2014,08,05,09,53,19.30
2014,08,05,09,54,19.30
2014,08,05,09,55,19.30
2014,08,05,09,56,19.30
2014,08,05,09,57,19.30
2014,08,05,09,58,19.30
2014,08,05,09,59,19.30
2014,08,05,10,00,19.30
2014,08,05,10,01,19.30
2014,08,05,10,02,19.30
2014,08,05,10,03,19.20
2014,08,05,10,04,19.20
2014,08,05,10,05,19.20
2014,08,05,10,06,19.20
2014,08,05,10,07,19.30
2014,08,05,10,08,19.30
2014,08,05,10,09,19.30
2014,08,05,10,10,19.30
2014,08,05,10,11,19.30
2014,08,05,10,12,19.30
2014,08,05,10,13,19.30
2014,08,05,10,14,19.30
2014,08,05,10,15,19.30
2014,08,05,10,16,19.30
2014,08,05,10,17,19.30
2014,08,05,10,18,19.30
2014,08,05,10,19,19.30
2014,08,05,10,20,19.30
2014,08,05,10,21,19.30
2014,08,05,10,22,19.20
2014,08,05,10,23,19.20
2014,08,05,10,24,19.20
2014,08,05,10,25,19.20
2014,08,05,10,26,19.20
2014,08,05,10,27,19.30
2014,08,05,10,28,19.30
2014,08,05,10,29,19.30
2014,08,05,10,30,19.40
2014,08,05,10,31,19.50
2014,08,05,10,32,19.60
2014,08,05,10,33,19.70
2014,08,05,10,34,19.80
2014,08,05,10,35,19.80
2014,08,05,10,36,19.90
2014,08,05,10,37,19.90
2014,08,05,10,38,20.00
2014,08,05,10,39,20.00
2014,08,05,10,40,20.00
2014,08,05,10,41,20.00
2014,08,05,10,42,20.00
2014,08,05,10,43,20.00
2014,08,05,10,44,20.00
2014,08,05,10,45,20.00
2014,08,05,10,46,19.90
2014,08,05,10,47,19.90
2014,08,05,10,48,19.90
2014,08,05,10,49,19.90
2014,08,05,10,50,19.90
2014,08,05,10,51,19.90
2014,08,05,10,52,19.90
2014,08,05,10,53,20.00
2014,08,05,10,54,20.10
2014,08,05,10,55,20.10
2014,08,05,10,56,20.20
2014,08,05,10,57,20.30
2014,08,05,10,58,20.40
2014,08,05,10,59,20.50
2014,08,05,11,00,20.50
2014,08,05,11,01,20.60
2014,08,05,11,02,20.70
2014,08,05,11,03,20.70
2014,08,05,11,04,20.70
2014,08,05,11,05,20.70
2014,08,05,11,06,20.70
2014,08,05,11,07,20.70
2014,08,05,11,08,20.80
2014,08,05,11,09,20.80
2014,08,05,11,10,20.80
2014,08,05,11,11,20.80
2014,08,05,11,12,20.80
2014,08,05,11,13,20.80
2014,08,05,11,14,20.70
2014,08,05,11,15,20.70
2014,08,05,11,16,20.60
2014,08,05,11,17,20.60
2014,08,05,11,18,20.60
2014,08,05,11,19,20.60
2014,08,05,11,20,20.60
2014,08,05,11,21,20.60
2014,08,05,11,22,20.60
2014,08,05,11,23,20.60
2014,08,05,11,24,20.60
2014,08,05,11,25,20.60
2014,08,05,11,26,20.60
2014,08,05,11,27,20.60
2014,08,05,11,28,20.60
2014,08,05,11,29,20.60
2014,08,05,11,30,20.60
2014,08,05,11,31,20.60
2014,08,05,11,32,20.60
2014,08,05,11,33,20.60
2014,08,05,11,34,20.60
2014,08,05,11,35,20.60
2014,08,05,11,36,20.60
2014,08,05,11,37,20.70
2014,08,05,11,38,20.70
2014,08,05,11,39,20.70
2014,08,05,11,40,20.70
2014,08,05,11,41,20.80
2014,08,05,11,42,20.80
2014,08,05,11,43,20.80
2014,08,05,11,44,20.80
2014,08,05,11,45,20.70
2014,08,05,11,46,20.70
2014,08,05,11,47,20.70
2014,08,05,11,48,20.70
2014,08,05,11,49,20.70
2014,08,05,11,50,20.70
2014,08,05,11,51,20.70
2014,08,05,11,52,20.60
2014,08,05,11,53,20.60
2014,08,05,11,54,20.60
2014,08,05,11,55,20.60
2014,08,05,11,56,20.60
2014,08,05,11,57,20.60
2014,08,05,11,58,20.60
2014,08,05,11,59,20.70
2014,08,05,12,00,20.70
2014,08,05,12,01,20.70
2014,08,05,12,02,20.80
2014,08,05,12,03,20.80
2014,08,05,12,04,20.70
2014,08,05,12,05,20.70
2014,08,05,12,06,20.70
2014,08,05,12,07,20.60
2014,08,05,12,08,20.60
2014,08,05,12,09,20.60
2014,08,05,12,10,20.60
2014,08,05,12,11,20.70
2014,08,05,12,12,20.70
2014,08,05,12,13,20.70
2014,08,05,12,14,20.70
2014,08,05,12,15,20.70
2014,08,05,12,16,20.70
2014,08,05,12,17,20.70
2014,08,05,12,18,20.80
2014,08,05,12,19,20.80
2014,08,05,12,20,20.80
2014,08,05,12,21,20.80
2014,08,05,12,22,20.80
2014,08,05,12,23,20.80
2014,08,05,12,24,20.80
2014,08,05,12,25,20.80
2014,08,05,12,26,20.70
2014,08,05,12,27,20.80
2014,08,05,12,28,20.80
2014,08,05,12,29,20.80
2014,08,05,12,30,20.80
2014,08,05,12,31,20.80
2014,08,05,12,32,20.80
2014,08,05,12,33,20.80
2014,08,05,12,34,20.80
2014,08,05,12,35,20.90
2014,08,05,12,36,20.90
2014,08,05,12,37,21.00
2014,08,05,12,38,21.10
2014,08,05,12,39,21.20
2014,08,05,12,40,21.30
2014,08,05,12,41,21.30
2014,08,05,12,42,21.40
2014,08,05,12,43,21.50
2014,08,05,12,44,21.50
2014,08,05,12,45,21.60
2014,08,05,12,46,21.70
2014,08,05,12,47,21.70
2014,08,05,12,48,21.70
2014,08,05,12,49,21.80
2014,08,05,12,50,21.80
2014,08,05,12,51,21.80
2014,08,05,12,52,21.80
2014,08,05,12,53,21.80
2014,08,05,12,54,21.90
2014,08,05,12,55,21.90
2014,08,05,12,56,21.90
2014,08,05,12,57,22.00
2014,08,05,12,58,22.00
2014,08,05,12,59,22.00
2014,08,05,13,00,22.00
2014,08,05,13,01,22.10
2014,08,05,13,02,22.10
2014,08,05,13,03,22.20
2014,08,05,13,04,22.20
2014,08,05,13,05,22.30
2014,08,05,13,06,22.30
2014,08,05,13,07,22.40
2014,08,05,13,08,22.40
2014,08,05,13,09,22.50
2014,08,05,13,10,22.60
2014,08,05,13,11,22.70
2014,08,05,13,12,22.80
2014,08,05,13,13,22.80
2014,08,05,13,14,22.90
2014,08,05,13,15,22.90
2014,08,05,13,16,22.90
2014,08,05,13,17,23.00
2014,08,05,13,18,23.00
2014,08,05,13,19,23.10
2014,08,05,13,20,23.10
2014,08,05,13,21,23.10
2014,08,05,13,22,23.10
2014,08,05,13,23,23.10
2014,08,05,13,24,23.10
2014,08,05,13,25,23.10
2014,08,05,13,26,23.20
2014,08,05,13,27,23.20
2014,08,05,13,28,23.20
2014,08,05,13,29,23.20
2014,08,05,13,30,23.20
2014,08,05,13,31,23.20
2014,08,05,13,32,23.20
2014,08,05,13,33,23.30
2014,08,05,13,34,23.40
2014,08,05,13,35,23.40
2014,08,05,13,36,23.40
2014,08,05,13,37,23.40
2014,08,05,13,38,23.40
2014,08,05,13,39,23.40
2014,08,05,13,40,23.40
2014,08,05,13,41,23.40
2014,08,05,13,42,23.50
2014,08,05,13,43,23.60
2014,08,05,13,44,23.70
2014,08,05,13,45,23.80
2014,08,05,13,46,23.90
2014,08,05,13,47,23.90
2014,08,05,13,48,23.90
2014,08,05,13,49,23.80
2014,08,05,13,50,23.90
2014,08,05,13,51,23.90
2014,08,05,13,52,23.80
2014,08,05,13,53,23.80
2014,08,05,13,54,23.80
2014,08,05,13,55,23.80
2014,08,05,13,56,23.80
2014,08,05,13,57,23.80
2014,08,05,13,58,23.80
2014,08,05,13,59,23.80
2014,08,05,14,00,23.70
2014,08,05,14,01,23.80
2014,08,05,14,02,23.80
2014,08,05,14,03,23.70
2014,08,05,14,04,23.70
2014,08,05,14,05,23.70
2014,08,05,14,06,23.70
2014,08,05,14,07,23.70
2014,08,05,14,08,23.60
2014,08,05,14,09,23.60
2014,08,05,14,10,23.60
2014,08,05,14,11,23.70
2014,08,05,14,12,23.70
2014,08,05,14,13,23.70
2014,08,05,14,14,23.70
2014,08,05,14,15,23.70
2014,08,05,14,16,23.70
2014,08,05,14,17,23.70
2014,08,05,14,18,23.70
2014,08,05,14,19,23.70
2014,08,05,14,20,23.80
2014,08,05,14,21,23.90
2014,08,05,14,22,24.00
2014,08,05,14,23,24.10
2014,08,05,14,24,24.10
2014,08,05,14,25,24.10
2014,08,05,14,26,24.20
2014,08,05,14,27,24.10
2014,08,05,14,28,24.10
2014,08,05,14,29,24.00
2014,08,05,14,30,23.90
2014,08,05,14,31,23.80
2014,08,05,14,32,23.80
2014,08,05,14,33,23.80
2014,08,05,14,34,23.70
2014,08,05,14,35,23.70
2014,08,05,14,36,23.80
2014,08,05,14,37,23.90
2014,08,05,14,38,23.90
2014,08,05,14,39,23.90
2014,08,05,14,40,23.90
2014,08,05,14,41,23.80
2014,08,05,14,42,23.70
2014,08,05,14,43,23.60
2014,08,05,14,44,23.60
2014,08,05,14,45,23.50
2014,08,05,14,46,23.40
2014,08,05,14,47,23.40
2014,08,05,14,48,23.30
2014,08,05,14,49,23.30
2014,08,05,14,50,23.30
2014,08,05,14,51,23.30
2014,08,05,14,52,23.30
2014,08,05,14,53,23.30
2014,08,05,14,54,23.30
2014,08,05,14,55,23.30
2014,08,05,14,56,23.20
2014,08,05,14,57,23.20
2014,08,05,14,58,23.20
2014,08,05,14,59,23.20
2014,08,05,15,00,23.20
2014,08,05,15,01,23.20
2014,08,05,15,02,23.20
2014,08,05,15,03,23.30
2014,08,05,15,04,23.30
2014,08,05,15,05,23.30
2014,08,05,15,06,23.20
2014,08,05,15,07,23.30
2014,08,05,15,08,23.20
2014,08,05,15,09,23.30
2014,08,05,15,10,23.30
2014,08,05,15,11,23.30
2014,08,05,15,12,23.40
2014,08,05,15,13,23.40
2014,08,05,15,14,23.40
2014,08,05,15,15,23.40
2014,08,05,15,16,23.40
2014,08,05,15,17,23.40
2014,08,05,15,18,23.40
2014,08,05,15,19,23.20
2014,08,05,15,20,23.20
2014,08,05,15,21,23.20
2014,08,05,15,22,23.20
2014,08,05,15,23,23.30
2014,08,05,15,24,23.20
2014,08,05,15,25,23.30
2014,08,05,15,26,23.20
2014,08,05,15,27,23.20
2014,08,05,15,28,23.20
2014,08,05,15,29,23.30
2014,08,05,15,30,23.30
2014,08,05,15,31,23.20
2014,08,05,15,32,23.10
2014,08,05,15,33,23.00
2014,08,05,15,34,23.00
2014,08,05,15,35,22.90
2014,08,05,15,36,22.90
2014,08,05,15,37,23.00
2014,08,05,15,38,23.00
2014,08,05,15,39,23.10
2014,08,05,15,40,23.10
2014,08,05,15,41,23.20
2014,08,05,15,42,23.20
2014,08,05,15,43,23.20
2014,08,05,15,44,23.30
2014,08,05,15,45,23.40
2014,08,05,15,46,23.40
2014,08,05,15,47,23.40
2014,08,05,15,48,23.50
2014,08,05,15,49,23.50
2014,08,05,15,50,23.60
2014,08,05,15,51,23.60
2014,08,05,15,52,23.60
2014,08,05,15,53,23.60
2014,08,05,15,54,23.60
2014,08,05,15,55,23.60
2014,08,05,15,56,23.60
2014,08,05,15,57,23.70
2014,08,05,15,58,23.70
2014,08,05,15,59,23.80
2014,08,05,16,00,23.80
2014,08,05,16,01,23.80
2014,08,05,16,02,23.80
2014,08,05,16,03,23.80
2014,08,05,16,04,23.80
2014,08,05,16,05,23.80
2014,08,05,16,06,23.80
2014,08,05,16,07,23.90
2014,08,05,16,08,24.00
2014,08,05,16,09,24.00
2014,08,05,16,10,24.10
2014,08,05,16,11,24.10
2014,08,05,16,12,24.10
2014,08,05,16,13,24.10
2014,08,05,16,14,24.10
2014,08,05,16,15,24.10
2014,08,05,16,16,24.10
2014,08,05,16,17,24.10
2014,08,05,16,18,24.10
2014,08,05,16,19,24.10
2014,08,05,16,20,24.00
2014,08,05,16,21,23.90
2014,08,05,16,22,23.80
2014,08,05,16,23,23.80
2014,08,05,16,24,23.80
2014,08,05,16,25,23.80
2014,08,05,16,26,23.80
2014,08,05,16,27,23.80
2014,08,05,16,28,23.80
2014,08,05,16,29,23.90
2014,08,05,16,30,23.90
2014,08,05,16,31,23.90
2014,08,05,16,32,24.00
2014,08,05,16,33,24.10
2014,08,05,16,34,24.20
2014,08,05,16,35,24.20
2014,08,05,16,36,24.20
2014,08,05,16,37,24.20
2014,08,05,16,38,24.20
2014,08,05,16,39,24.20
2014,08,05,16,40,24.20
2014,08,05,16,41,24.30
2014,08,05,16,42,24.30
2014,08,05,16,43,24.20
2014,08,05,16,44,24.10
2014,08,05,16,45,24.10
2014,08,05,16,46,24.10
2014,08,05,16,47,24.10
2014,08,05,16,48,24.10
2014,08,05,16,49,24.10
2014,08,05,16,50,24.10
2014,08,05,16,51,24.10
2014,08,05,16,52,24.10
2014,08,05,16,53,24.10
2014,08,05,16,54,24.10
2014,08,05,16,55,24.00
2014,08,05,16,56,24.00
2014,08,05,16,57,24.00
2014,08,05,16,58,24.00
2014,08,05,16,59,24.00
2014,08,05,17,00,24.10
2014,08,05,17,01,24.10
2014,08,05,17,02,24.10
2014,08,05,17,03,24.10
2014,08,05,17,04,24.10
2014,08,05,17,05,24.10
2014,08,05,17,06,24.10
2014,08,05,17,07,24.10
2014,08,05,17,08,24.10
2014,08,05,17,09,24.10
2014,08,05,17,10,24.10
2014,08,05,17,11,24.10
2014,08,05,17,12,24.00
2014,08,05,17,13,24.00
2014,08,05,17,14,23.90
2014,08,05,17,15,23.90
2014,08,05,17,16,23.80
2014,08,05,17,17,23.80
2014,08,05,17,18,23.80
2014,08,05,17,19,23.80